This is the latest recevied weather packets stored in our database for station/object W4BOD. If no packets are shown the sender has not sent any weather packets the latest 10 day(s).
| Time | Temp. | Humidity | Pressure | Rain* | Wind** | Luminosity | Snow |
|---|---|---|---|---|---|---|---|
| 1777556231 | 13.89° C | 56% | 1016.8 hPa | 0 mm | - | 99 W/m² | - |
| 1777555926 | 13.89° C | 56% | 1016.9 hPa | 0 mm | - | 56 W/m² | - |
| 1777555622 | 13.89° C | 56% | 1017.3 hPa | 0 mm | - | 53 W/m² | - |
| 1777555319 | 13.89° C | 59% | 1017.2 hPa | 0 mm | - | 52 W/m² | - |
| 1777555016 | 13.89° C | 59% | 1016.9 hPa | 0 mm | - | 51 W/m² | - |
| 1777554713 | 13.33° C | 61% | 1016.8 hPa | 0 mm | - | 51 W/m² | - |
| 1777554410 | 13.33° C | 62% | 1017 hPa | 0 mm | - | 49 W/m² | - |
| 1777554106 | 12.78° C | 63% | 1017 hPa | 0 mm | - | 48 W/m² | - |
| 1777553803 | 12.78° C | 65% | 1017.1 hPa | 0 mm | - | 51 W/m² | - |
| 1777553500 | 12.78° C | 67% | 1017.2 hPa | 0 mm | - | 47 W/m² | - |
| 1777553195 | 12.78° C | 69% | 1016.9 hPa | 0 mm | - | 46 W/m² | - |
| 1777552892 | 12.22° C | 70% | 1017 hPa | 0 mm | - | 45 W/m² | - |
| 1777552587 | 12.22° C | 69% | 1017.1 hPa | 0 mm | - | 45 W/m² | - |
| 1777552283 | 12.22° C | 73% | 1017 hPa | 0 mm | - | 44 W/m² | - |
| 1777551980 | 12.22° C | 73% | 1017.1 hPa | 0 mm | - | 43 W/m² | - |
| 1777551677 | 12.22° C | 73% | 1017 hPa | 0 mm | - | 42 W/m² | - |
| 1777551375 | 11.67° C | 73% | 1017.1 hPa | 0 mm | - | 41 W/m² | - |
| 1777551071 | 11.67° C | 71% | 1016.8 hPa | 0 mm | - | 40 W/m² | - |
| 1777550768 | 11.67° C | 73% | 1016.7 hPa | 0 mm | - | 42 W/m² | - |
| 1777550465 | 11.67° C | 72% | 1016.5 hPa | 0 mm | - | 56 W/m² | - |
| 1777550161 | 12.22° C | 72% | 1016.4 hPa | 0 mm | - | 71 W/m² | - |
| 1777549857 | 11.67° C | 73% | 1016.3 hPa | 0 mm | - | 69 W/m² | - |
| 1777549553 | 11.67° C | 73% | 1016.2 hPa | 0 mm | - | 59 W/m² | - |
| 1777549249 | 11.67° C | 75% | 1015.9 hPa | 0 mm | - | 49 W/m² | - |
| 1777548946 | 11.11° C | 77% | 1016.1 hPa | 0 mm | - | 38 W/m² | - |
* Rain latest hour (hover to see other rain measurements)
** Current wind speed in m/s (hover to see current wind gust speed)